Location: Alexandria
(38.8050°N, 77.0470°W)
Time: 07:50:05
(UTC-04:00)

N. Korean satellite - Pass Details

Date: 17 February 2018
Orbit: 457 x 514 km, 97.2° (Epoch: 19 May)

Event Time Altitude Azimuth Distance (km) Brightness Sun altitude
Rises 18:47:37 0° 198° (SSW) 2,463 10.5 -12.2°
Reaches altitude 10° 18:50:01 10° 216° (SW) 1,594 9.8 -12.7°
Maximum altitude 18:52:37 20° 265° (W) 1,118 9.5 -13.2°
Drops below altitude 10° 18:55:13 10° 315° (NW) 1,610 9.8 -13.7°
Sets 18:57:40 0° 332° (NNW) 2,495 10.5 -14.2°
